sat.trackr.live / text

‹ back to catalog

STARLINK-31461

NORAD 59370 · 2024-060Y

PAYLOAD ACTIVE UNKNOWN

§ Identity

Operator
Country
US
Launch date
2024-03-31
Launch site
AFETR
Launch vehicle
Mass (kg)
RCS (m²)

Purposes: comms

External: N2YO · Heavens-Above · Gunter

§ Orbital elements

Epoch: 2026-05-24T13:46:59.165760Z

Period
94.27 min
Inclination
43.0000°
Eccentricity
0.0001514
Mean motion
15.27587506 rev/d
Perigee alt
482.0 km
Apogee alt
484.1 km
Semi-major
6,861.2 km
B*
4.4218e-5
RAAN
180.4608°
Arg perigee
272.6732°
Mean anomaly
87.3946°
Rev number
12,173

§ Raw data

STARLINK-314611 59370U 24060Y   26144.57429590  .00000955  00000+0  44218-4 0  99952 59370  43.0000 180.4608 0001514 272.6732  87.3946 15.27587506121737

JSON: /api/v1/satellites/59370 · /tle

For live sub-satellite position, see the globe view (requires WebGL).

§ Visibility from observer

Set your observer location to see the next 7 days of passes ≥ 10°. The values pass through the URL so the page stays shareable.

No JS? Fill the form by hand. The geolocation button needs JavaScript.